Weather in Sunbury

Australia     37°34′46″S   144°43′29″E
temp.,
°C
wind,
m/s
gust,
m/s
humid.,
%
clouds,
%
prec.,
mm/h
press.,
hPa
HPBL,
m
20 january, thu
thu2023:00+15wsw33670 0.0 102458
02:00+12wsw23810 0.0 102655
05:00+11w21870 0.0 102520
08:00+14wsw12710 0.0 1027195
11:00+23s22370 0.0 1026880
14:00+27sse53240 0.0 10251589
17:00+29s44190 0.0 10231682
20:00+24s46333 0.0 1023300
21 january, fri
fri2123:00+17w226111 0.0 102630
02:00+16wsw1166100 0.0 102622
05:00+16n5115719 0.0 1026263
08:00+19n712500 0.0 1027455
11:00+26n55291 0.0 10271020
14:00+30ene32200 0.0 10242218
17:00+31sse64180 0.0 10212501
20:00+26s58350 0.0 1022516
22 january, sat
sat2223:00+19w22600 0.0 102330
02:00+18w21600 0.0 102218
05:00+18n36540 0.0 102294
08:00+20n610500 0.0 1023379
11:00+28n43310 0.0 10221098
14:00+32ese32210 0.0 10182684
17:00+31s75220 0.0 10171507
20:00+26s47320 0.0 1017405
23 january, sun
sun2323:00+20wsw22560 0.0 101833
02:00+20nw11540 0.0 101612
05:00+20nnw22520 0.0 101618
08:00+23nnw24420 0.0 1017199
11:00+31nw132410 0.0 10161536
14:00+33s5420100 0.0 10132625
17:00+31sse6520100 0.0 10121410
20:00+26s3631100 0.0 1012249
24 january, mon
mon2423:00+22wsw2353100 0.0 101384
02:00+20w1157100 0.0 101215
05:00+20nnw1154100 0.0 101112
08:00+23nne1141100 0.0 1012105
11:00+30nnw342597 0.0 10121293
14:00+35nnw021897 0.0 10093757
17:00+27ssw3537100 0.0 1009332
20:00+26s3541100 0.0 1009247